Regional Weather Roundup
Issued by NWS Sterling, VA

Home | Current Version | Previous Version | Graphics & Text | Print | Product List | Glossary On
Versions: 1 2 3 4 5 6 7 8 9 10 11 12 13 14 15 16 17 18 19 20 21 22 23 24 25 26
000
ASUS41 KLWX 271111
RWRLWX

REGIONAL WEATHER ROUNDUP
NATIONAL WEATHER SERVICE BALTIMORE MD/WASHINGTON DC
700 AM EDT THU JUL 27 2017

Note: "FAIR" indicates few or no clouds below 12,000 feet
with no significant weather and/or obstructions to visibility.
 TC=TEMPERATURE CELSIUS

 * =Non NWS site. Station does not report precipitation (e.g. rain,
    snow, etc.), thunder, or fog.

DCZ001-MDZ009-015-VAZ040>042-051-053>054-271200-
WASHINGTON METRO

CITY           SKY/WX    TMP DP  RH WIND       PRES   REMARKS
WASHINGTON NAT CLOUDY    73  68  84 S12       30.05S
DULLES         CLOUDY    70  66  87 SE5       30.04F
ANDREWS AFB    CLOUDY    69  67  93 S5        30.04F
FT BELVOIR     CLOUDY    71  66  84 S3        30.04F
QUANTICO       CLOUDY    73  69  87 SW9       30.05F
COLLEGE PARK*  CLOUDY    72  66  83 S3        30.04F
LEESBURG*      CLOUDY    72  70  94 SE5       30.05F
MANASSAS*      CLOUDY    68  67  96 CALM      30.05S
GAITHERSBURG*  CLOUDY    71  67  87 S7        30.06F

$$

MDZ006>007-011-014-271200-
BALTIMORE METRO

CITY           SKY/WX    TMP DP  RH WIND       PRES   REMARKS
BWI AIRPORT    MOCLDY    71  69  93 VRB6      30.03F
MD SCIENCE CTR   N/A     74  68  81 MISG      30.04F
MARTIN STATE   CLOUDY    75  70  83 S6        30.06S
ANNAPOLIS      CLOUDY    74  70  87 VRB7      30.05R
FORT MEADE*    CLOUDY    70  66  88 CALM      30.06F

$$

MDZ012-015-019>023-271200-
MARYLAND EASTERN SHORE

CITY           SKY/WX    TMP DP  RH WIND       PRES   REMARKS
OCEAN CITY     PTSUNNY   70  68  93 CALM      30.07S
SALISBURY      CLOUDY    68  67  96 S3        30.07S
BAY BRIDGE AP* CLOUDY    75  66  73 S8        30.05S
CAMBRIDGE*     CLOUDY    70  68  94 CALM      30.05F
EASTON*        CLOUDY    72  68  88 S5        30.09S

$$

MDZ017>025-271200-
SOUTHERN MARYLAND

CITY           SKY/WX    TMP DP  RH WIND       PRES   REMARKS
PATUXENT RIVER MOCLDY    72  69  90 VRB3      30.05S
ST INIGOES     MOCLDY    74  69  85 S7        30.04F
LEONARDTOWN*   CLOUDY    70  66  88 CALM      30.07S

$$

MDZ003>005-271200-
NORTH CENTRAL MARYLAND

CITY           SKY/WX    TMP DP  RH WIND       PRES   REMARKS
FREDERICK*     CLOUDY    72  70  94 S6        30.06F
HAGERSTOWN APT PTCLDY    71  67  87 S6        30.03F
WESTMINSTER*   CLOUDY    72  68  88 S9        30.04F

$$

MDZ501>502-271200-
WESTERN MARYLAND

CITY           SKY/WX    TMP DP  RH WIND       PRES   REMARKS
OAKLAND*       PTCLDY    63  61  94 SW6       30.08S
CUMBERLAND*    CLOUDY    64  64 100 CALM      30.07S

$$

VAZ025>031-271200-
SHENANDOAH VALLEY

CITY           SKY/WX    TMP DP  RH WIND       PRES   REMARKS
WINCHESTER*    MOCLDY    63  63 100 CALM      30.03S FOG
FRONT ROYAL*   PTCLDY    64  63  94 CALM      30.03S
LURAY*         PTCLDY    64  64 100 CALM      30.04S
NEW MARKET*    CLOUDY    65  64  94 CALM      30.03F
STAUNTON*      MOCLDY    64  62  96 CALM      30.07F FOG
WAYNESBORO*    PTCLDY    65  65 100 CALM      30.07S

$$

WVZ021-048>050-054>055-271200-
EASTERN WEST VIRGINIA PANHANDLE

CITY           SKY/WX    TMP DP  RH WIND       PRES   REMARKS
MARTINSBURG    MOCLDY    67  64  90 CALM      30.01F
PETERSBURG*    PTCLDY    64  64  98 CALM      30.04S FOG

$$

VAZ036>039-050-271200-
CENTRAL FOOTHILLS

CITY           SKY/WX    TMP DP  RH WIND       PRES   REMARKS
CHARLOTTESVILL CLOUDY    69  67  93 CALM      30.04F
CULPEPER*      PTCLDY    66  66  99 CALM      30.05S
ORANGE*        MOCLDY    64  64 100 CALM      30.04F
GORDONSVILLE*  MOCLDY    66  66 100 CALM      30.04F
WARRENTON*     CLOUDY    67  64  88 CALM      30.04S

$$

VAZ055>057-271200-
NORTH AND CENTRAL PIEDMONT

CITY           SKY/WX    TMP DP  RH WIND       PRES   REMARKS
FREDERICKSBRG* MOCLDY    69  69  99 SE3       30.04S
STAFFORD*      CLOUDY    68  68 100 S3        30.08F

$$

NCZ024-NYZ072-PAZ021-071-VAZ022-071-271200-
OTHER REGIONAL OBSERVATIONS

CITY           SKY/WX    TMP DP  RH WIND       PRES   REMARKS
NEW YORK CITY  CLOUDY    67  61  81 CALM      30.09S
PHILADELPHIA   PTSUNNY   69  64  84 S6        30.06S
PITTSBURGH     CLOUDY    65  62  90 CALM      30.00F
ROANOKE        PTCLDY    70  67  90 CALM      30.09R
RICHMOND       CLOUDY    71  68  90 S6        30.05F
RALEIGH        MOCLDY    74  68  81 SW8       30.09S

$$

ANZ530>537-271200-
MARINE OBSERVATIONS

STATION/POSITION TIME  TEMP    WIND        PRES
                       AIR SEA DIR/SP/G
                 (UTC) (F)     (DEG/KT/KT) (MB)
THOMAS PT LIGHT  1100   74 81  200/ 16/ 17   N/A
BALT KEY BRIDGE  1048   73     190/  8/ 10 1016.9F
COVE POINT       1048   73     210/  7/ 10 1018.3R
LEWISETTA        1048   73 82  220/  9/ 11 1017.2F
SOLOMONS ISLAND  1042   74 83  190/  4/  8   N/A
PINEY POINT      1042          210/ 10/ 11   N/A

$$





USA.gov is the U.S. government's official web portal to all federal, state and local government web resources and services.